Location: Unspecified
(33.8750°N, 0.0000°E)
Time: 13:34:27
(UTC+00:00)

Meteor 1-25 Rocket - Visible Passes

Search period start: 04 April 2026 00:00
Search period end: 14 April 2026 00:00
Orbit: 837 x 889 km, 81.2° (Epoch: 29 March)

Date Brightness Start Highest point End Pass type
(mag) Time Alt. Az. Time Alt. Az. Time Alt. Az.
4 Apr 5.7 02:23:15 10° N 02:27:01 33° NE 02:27:01 33° NE visible
4 Apr 5.9 04:07:18 10° NW 04:09:14 17° WNW 04:09:14 17° WNW visible
5 Apr 5.9 02:14:51 10° N 02:18:09 30° NNE 02:18:09 30° NNE visible
5 Apr 6.1 03:58:51 10° NW 04:00:22 16° NW 04:00:22 16° NW visible
6 Apr 6.1 02:06:26 10° N 02:09:21 27° NNE 02:09:21 27° NNE visible
6 Apr 6.2 03:50:25 10° NW 03:51:35 14° NW 03:51:35 14° NW visible
7 Apr 6.2 01:58:03 10° N 02:00:37 24° NNE 02:00:37 24° NNE visible
7 Apr 6.3 03:41:59 10° NW 03:42:52 13° NW 03:42:52 13° NW visible
8 Apr 6.3 01:49:38 10° N 01:51:57 23° NNE 01:51:57 23° NNE visible
8 Apr 6.4 03:33:32 10° NW 03:34:11 12° NW 03:34:11 12° NW visible
9 Apr 6.4 01:41:14 10° N 01:43:19 21° NNE 01:43:19 21° NNE visible
9 Apr 6.5 03:25:06 10° NW 03:25:33 12° NW 03:25:33 12° NW visible
10 Apr 6.5 01:32:50 10° N 01:34:43 20° NNE 01:34:43 20° NNE visible
10 Apr 6.5 03:16:39 10° NW 03:16:58 11° NW 03:16:58 11° NW visible
11 Apr 6.6 01:24:25 10° N 01:26:09 19° NNE 01:26:09 19° NNE visible
11 Apr 6.6 03:08:13 10° NW 03:08:24 11° NW 03:08:24 11° NW visible
12 Apr 6.7 01:16:02 10° N 01:17:36 18° NNE 01:17:36 18° NNE visible
12 Apr 6.6 02:59:46 10° NW 02:59:51 10° NW 02:59:51 10° NW visible
13 Apr 6.7 01:07:37 10° N 01:09:05 17° NNE 01:09:05 17° NNE visible
13 Apr 6.7 02:51:20 10° NW 02:51:20 10° NW 02:51:20 10° NW visible
